Year,Month,Day,Hour,Minute,Value (Times are PST for windspeed in km/hr)
2015,08,28,00,00,6.90
2015,08,28,00,01,2.80
2015,08,28,00,02,3.40
2015,08,28,00,03,1.20
2015,08,28,00,04,3.50
2015,08,28,00,05,6.80
2015,08,28,00,06,4.60
2015,08,28,00,07,3.00
2015,08,28,00,08,1.20
2015,08,28,00,09,0.90
2015,08,28,00,10,1.50
2015,08,28,00,11,1.80
2015,08,28,00,12,2.80
2015,08,28,00,13,3.40
2015,08,28,00,14,2.00
2015,08,28,00,15,2.60
2015,08,28,00,16,3.50
2015,08,28,00,17,2.20
2015,08,28,00,18,2.80
2015,08,28,00,19,1.80
2015,08,28,00,20,1.90
2015,08,28,00,21,0.70
2015,08,28,00,22,1.70
2015,08,28,00,23,2.90
2015,08,28,00,24,1.80
2015,08,28,00,25,1.90
2015,08,28,00,26,1.10
2015,08,28,00,27,3.10
2015,08,28,00,28,2.30
2015,08,28,00,29,2.60
2015,08,28,00,30,3.20
2015,08,28,00,31,4.70
2015,08,28,00,32,3.00
2015,08,28,00,33,4.00
2015,08,28,00,34,1.90
2015,08,28,00,35,1.20
2015,08,28,00,36,1.10
2015,08,28,00,37,2.50
2015,08,28,00,38,2.20
2015,08,28,00,39,2.10
2015,08,28,00,40,2.30
2015,08,28,00,41,2.60
2015,08,28,00,42,2.60
2015,08,28,00,43,3.50
2015,08,28,00,44,3.60
2015,08,28,00,45,4.10
2015,08,28,00,46,4.70
2015,08,28,00,47,3.60
2015,08,28,00,48,4.40
2015,08,28,00,49,5.80
2015,08,28,00,50,6.40
2015,08,28,00,51,5.60
2015,08,28,00,52,5.30
2015,08,28,00,53,4.80
2015,08,28,00,54,5.60
2015,08,28,00,55,5.20
2015,08,28,00,56,4.60
2015,08,28,00,57,4.30
2015,08,28,00,58,4.50
2015,08,28,00,59,3.90
2015,08,28,01,00,4.10
2015,08,28,01,01,3.70
2015,08,28,01,02,4.80
2015,08,28,01,03,3.90
2015,08,28,01,04,3.50
2015,08,28,01,05,4.20
2015,08,28,01,06,3.70
2015,08,28,01,07,3.90
2015,08,28,01,08,4.10
2015,08,28,01,09,3.90
2015,08,28,01,10,4.10
2015,08,28,01,11,3.80
2015,08,28,01,12,3.40
2015,08,28,01,13,4.70
2015,08,28,01,14,4.60
2015,08,28,01,15,4.20
2015,08,28,01,16,4.00
2015,08,28,01,17,5.10
2015,08,28,01,18,4.70
2015,08,28,01,19,2.50
2015,08,28,01,20,3.20
2015,08,28,01,21,2.40
2015,08,28,01,22,2.20
2015,08,28,01,23,3.00
2015,08,28,01,24,3.00
2015,08,28,01,25,2.10
2015,08,28,01,26,2.40
2015,08,28,01,27,2.60
2015,08,28,01,28,3.10
2015,08,28,01,29,3.10
2015,08,28,01,30,3.50
2015,08,28,01,31,4.80
2015,08,28,01,32,4.10
2015,08,28,01,33,4.20
2015,08,28,01,34,3.60
2015,08,28,01,35,2.40
2015,08,28,01,36,2.00
2015,08,28,01,37,1.70
2015,08,28,01,38,1.60
2015,08,28,01,39,2.80
2015,08,28,01,40,2.60
2015,08,28,01,41,1.00
2015,08,28,01,42,0.20
2015,08,28,01,43,1.60
2015,08,28,01,44,1.10
2015,08,28,01,45,0.50
2015,08,28,01,46,0.20
2015,08,28,01,47,0.10
2015,08,28,01,48,1.30
2015,08,28,01,49,1.10
2015,08,28,01,50,1.00
2015,08,28,01,51,0.90
2015,08,28,01,52,0.40
2015,08,28,01,53,0.00
2015,08,28,01,54,0.00
2015,08,28,01,55,0.50
2015,08,28,01,56,0.30
2015,08,28,01,57,1.40
2015,08,28,01,58,1.80
2015,08,28,01,59,1.90
2015,08,28,02,00,1.80
2015,08,28,02,01,1.50
2015,08,28,02,02,1.40
2015,08,28,02,03,1.70
2015,08,28,02,04,1.70
2015,08,28,02,05,2.20
2015,08,28,02,06,2.20
2015,08,28,02,07,1.20
2015,08,28,02,08,2.20
2015,08,28,02,09,1.60
2015,08,28,02,10,1.10
2015,08,28,02,11,0.90
2015,08,28,02,12,0.80
2015,08,28,02,13,0.10
2015,08,28,02,14,0.40
2015,08,28,02,15,2.60
2015,08,28,02,16,4.30
2015,08,28,02,17,4.60
2015,08,28,02,18,2.50
2015,08,28,02,19,1.50
2015,08,28,02,20,1.30
2015,08,28,02,21,0.80
2015,08,28,02,22,0.60
2015,08,28,02,23,0.20
2015,08,28,02,24,1.10
2015,08,28,02,25,2.10
2015,08,28,02,26,3.20
2015,08,28,02,27,4.20
2015,08,28,02,28,4.40
2015,08,28,02,29,3.80
2015,08,28,02,30,2.70
2015,08,28,02,31,2.80
2015,08,28,02,32,1.90
2015,08,28,02,33,4.40
2015,08,28,02,34,3.50
2015,08,28,02,35,2.70
2015,08,28,02,36,3.00
2015,08,28,02,37,3.50
2015,08,28,02,38,3.80
2015,08,28,02,39,2.80
2015,08,28,02,40,4.00
2015,08,28,02,41,3.50
2015,08,28,02,42,3.80
2015,08,28,02,43,4.30
2015,08,28,02,44,5.90
2015,08,28,02,45,7.30
2015,08,28,02,46,6.90
2015,08,28,02,47,6.30
2015,08,28,02,48,6.40
2015,08,28,02,49,3.40
2015,08,28,02,50,5.20
2015,08,28,02,51,5.30
2015,08,28,02,52,5.70
2015,08,28,02,53,5.50
2015,08,28,02,54,6.80
2015,08,28,02,55,6.00
2015,08,28,02,56,6.20
2015,08,28,02,57,5.30
2015,08,28,02,58,4.90
2015,08,28,02,59,5.60
2015,08,28,03,00,3.60
2015,08,28,03,01,3.90
2015,08,28,03,02,4.10
2015,08,28,03,03,3.20
2015,08,28,03,04,3.80
2015,08,28,03,05,4.10
2015,08,28,03,06,1.70
2015,08,28,03,07,1.20
2015,08,28,03,08,3.60
2015,08,28,03,09,5.60
2015,08,28,03,10,4.30
2015,08,28,03,11,4.90
2015,08,28,03,12,3.80
2015,08,28,03,13,2.00
2015,08,28,03,14,1.50
2015,08,28,03,15,1.20
2015,08,28,03,16,2.00
2015,08,28,03,17,2.50
2015,08,28,03,18,2.20
2015,08,28,03,19,3.40
2015,08,28,03,20,0.60
2015,08,28,03,21,1.80
2015,08,28,03,22,2.80
2015,08,28,03,23,2.00
2015,08,28,03,24,1.60
2015,08,28,03,25,0.90
2015,08,28,03,26,1.60
2015,08,28,03,27,1.60
2015,08,28,03,28,0.50
2015,08,28,03,29,0.30
2015,08,28,03,30,2.60
2015,08,28,03,31,1.40
2015,08,28,03,32,2.20
2015,08,28,03,33,5.50
2015,08,28,03,34,4.40
2015,08,28,03,35,4.60
2015,08,28,03,36,4.30
2015,08,28,03,37,4.50
2015,08,28,03,38,4.20
2015,08,28,03,39,4.50
2015,08,28,03,40,5.10
2015,08,28,03,41,5.30
2015,08,28,03,42,3.70
2015,08,28,03,43,3.80
2015,08,28,03,44,3.50
2015,08,28,03,45,4.00
2015,08,28,03,46,2.90
2015,08,28,03,47,1.30
2015,08,28,03,48,1.20
2015,08,28,03,49,1.10
2015,08,28,03,50,1.80
2015,08,28,03,51,1.40
2015,08,28,03,52,0.90
2015,08,28,03,53,0.70
2015,08,28,03,54,0.60
2015,08,28,03,55,0.60
2015,08,28,03,56,0.60
2015,08,28,03,57,0.50
2015,08,28,03,58,0.20
2015,08,28,03,59,0.00
2015,08,28,04,00,0.00
2015,08,28,04,01,0.00
2015,08,28,04,02,0.10
2015,08,28,04,03,0.90
2015,08,28,04,04,1.50
2015,08,28,04,05,1.80
2015,08,28,04,06,1.20
2015,08,28,04,07,1.20
2015,08,28,04,08,1.90
2015,08,28,04,09,1.70
2015,08,28,04,10,2.20
2015,08,28,04,11,1.70
2015,08,28,04,12,1.60
2015,08,28,04,13,1.50
2015,08,28,04,14,2.80
2015,08,28,04,15,3.00
2015,08,28,04,16,2.70
2015,08,28,04,17,2.80
2015,08,28,04,18,2.00
2015,08,28,04,19,1.50
2015,08,28,04,20,1.30
2015,08,28,04,21,1.50
2015,08,28,04,22,1.80
2015,08,28,04,23,1.90
2015,08,28,04,24,2.00
2015,08,28,04,25,1.20
2015,08,28,04,26,0.00
2015,08,28,04,27,0.50
2015,08,28,04,28,1.00
2015,08,28,04,29,1.00
2015,08,28,04,30,0.80
2015,08,28,04,31,0.30
2015,08,28,04,32,1.20
2015,08,28,04,33,1.80
2015,08,28,04,34,1.70
2015,08,28,04,35,2.40
2015,08,28,04,36,1.70
2015,08,28,04,37,1.70
2015,08,28,04,38,2.80
2015,08,28,04,39,2.60
2015,08,28,04,40,2.10
2015,08,28,04,41,1.50
2015,08,28,04,42,0.80
2015,08,28,04,43,0.60
2015,08,28,04,44,0.20
2015,08,28,04,45,0.90
2015,08,28,04,46,1.40
2015,08,28,04,47,1.20
2015,08,28,04,48,0.60
2015,08,28,04,49,1.80
2015,08,28,04,50,2.50
2015,08,28,04,51,1.90
2015,08,28,04,52,1.30
2015,08,28,04,53,1.60
2015,08,28,04,54,1.50
2015,08,28,04,55,1.00
2015,08,28,04,56,0.10
2015,08,28,04,57,0.20
2015,08,28,04,58,1.50
2015,08,28,04,59,2.20
2015,08,28,05,00,1.20
2015,08,28,05,01,1.20
2015,08,28,05,02,1.40
2015,08,28,05,03,1.50
2015,08,28,05,04,1.90
2015,08,28,05,05,0.70
2015,08,28,05,06,0.20
2015,08,28,05,07,0.20
2015,08,28,05,08,0.30
2015,08,28,05,09,1.70
2015,08,28,05,10,1.20
2015,08,28,05,11,2.00
2015,08,28,05,12,0.60
2015,08,28,05,13,1.00
2015,08,28,05,14,0.40
2015,08,28,05,15,3.10
2015,08,28,05,16,4.30
2015,08,28,05,17,4.20
2015,08,28,05,18,3.10
2015,08,28,05,19,1.80
2015,08,28,05,20,1.40
2015,08,28,05,21,2.30
2015,08,28,05,22,3.00
2015,08,28,05,23,3.20
2015,08,28,05,24,2.80
2015,08,28,05,25,2.10
2015,08,28,05,26,1.20
2015,08,28,05,27,1.90
2015,08,28,05,28,0.90
2015,08,28,05,29,1.30
2015,08,28,05,30,0.40
2015,08,28,05,31,0.20
2015,08,28,05,32,1.10
2015,08,28,05,33,2.60
2015,08,28,05,34,2.50
2015,08,28,05,35,2.50
2015,08,28,05,36,1.50
2015,08,28,05,37,1.50
2015,08,28,05,38,0.80
2015,08,28,05,39,1.50
2015,08,28,05,40,1.50
2015,08,28,05,41,1.10
2015,08,28,05,42,0.40
2015,08,28,05,43,0.10
2015,08,28,05,44,0.60
2015,08,28,05,45,1.80
2015,08,28,05,46,1.80
2015,08,28,05,47,1.80
2015,08,28,05,48,0.60
2015,08,28,05,49,0.40
2015,08,28,05,50,0.90
2015,08,28,05,51,1.10
2015,08,28,05,52,0.40
2015,08,28,05,53,0.60
2015,08,28,05,54,0.30
2015,08,28,05,55,0.90
2015,08,28,05,56,1.90
2015,08,28,05,57,0.30
2015,08,28,05,58,0.20
2015,08,28,05,59,1.70
2015,08,28,06,00,0.70
2015,08,28,06,01,1.80
2015,08,28,06,02,1.30
2015,08,28,06,03,1.70
2015,08,28,06,04,1.20
2015,08,28,06,05,1.30
2015,08,28,06,06,0.60
2015,08,28,06,07,0.60
2015,08,28,06,08,1.20
2015,08,28,06,09,1.40
2015,08,28,06,10,1.20
2015,08,28,06,11,0.30
2015,08,28,06,12,0.30
2015,08,28,06,13,1.00
2015,08,28,06,14,1.10
2015,08,28,06,15,1.70
2015,08,28,06,16,0.90
2015,08,28,06,17,0.60
2015,08,28,06,18,0.70
2015,08,28,06,19,2.40
2015,08,28,06,20,1.40
2015,08,28,06,21,1.20
2015,08,28,06,22,2.00
2015,08,28,06,23,0.70
2015,08,28,06,24,0.40
2015,08,28,06,25,0.10
2015,08,28,06,26,0.30
2015,08,28,06,27,0.50
2015,08,28,06,28,0.00
2015,08,28,06,29,0.20
2015,08,28,06,30,0.50
2015,08,28,06,31,1.00
2015,08,28,06,32,0.90
2015,08,28,06,33,0.60
2015,08,28,06,34,0.30
2015,08,28,06,35,0.90
2015,08,28,06,36,2.80
2015,08,28,06,37,3.10
2015,08,28,06,38,2.40
2015,08,28,06,39,3.20
2015,08,28,06,40,3.60
2015,08,28,06,41,3.30
2015,08,28,06,42,1.90
2015,08,28,06,43,1.20
2015,08,28,06,44,0.30
2015,08,28,06,45,1.80
2015,08,28,06,46,1.00
2015,08,28,06,47,1.30
2015,08,28,06,48,0.60
2015,08,28,06,49,1.90
2015,08,28,06,50,1.20
2015,08,28,06,51,0.20
2015,08,28,06,52,0.10
2015,08,28,06,53,1.20
2015,08,28,06,54,1.90
2015,08,28,06,55,2.80
2015,08,28,06,56,1.50
2015,08,28,06,57,1.00
2015,08,28,06,58,2.00
2015,08,28,06,59,3.20
2015,08,28,07,00,2.40
2015,08,28,07,01,0.70
2015,08,28,07,02,0.00
2015,08,28,07,03,0.10
2015,08,28,07,04,0.00
2015,08,28,07,05,0.00
2015,08,28,07,06,0.00
2015,08,28,07,07,0.80
2015,08,28,07,08,1.60
2015,08,28,07,09,2.40
2015,08,28,07,10,3.30
2015,08,28,07,11,1.50
2015,08,28,07,12,0.40
2015,08,28,07,13,0.10
2015,08,28,07,14,0.00
2015,08,28,07,15,0.10
2015,08,28,07,16,0.70
2015,08,28,07,17,0.60
2015,08,28,07,18,1.50
2015,08,28,07,19,2.30
2015,08,28,07,20,2.40
2015,08,28,07,21,0.80
2015,08,28,07,22,0.20
2015,08,28,07,23,0.50
2015,08,28,07,24,1.70
2015,08,28,07,25,1.70
2015,08,28,07,26,1.50
2015,08,28,07,27,1.10
2015,08,28,07,28,0.90
2015,08,28,07,29,0.60
2015,08,28,07,30,1.00
2015,08,28,07,31,0.90
2015,08,28,07,32,0.60
2015,08,28,07,33,0.80
2015,08,28,07,34,0.40
2015,08,28,07,35,1.40
2015,08,28,07,36,2.10
2015,08,28,07,37,1.20
2015,08,28,07,38,0.70
2015,08,28,07,39,0.10
2015,08,28,07,40,0.50
2015,08,28,07,41,0.20
2015,08,28,07,42,0.70
2015,08,28,07,43,1.20
2015,08,28,07,44,0.50
2015,08,28,07,45,0.50
2015,08,28,07,46,0.10
2015,08,28,07,47,0.20
2015,08,28,07,48,1.00
2015,08,28,07,49,1.70
2015,08,28,07,50,2.00
2015,08,28,07,51,2.10
2015,08,28,07,52,1.50
2015,08,28,07,53,1.10
2015,08,28,07,54,0.10
2015,08,28,07,55,1.30
2015,08,28,07,56,1.00
2015,08,28,07,57,0.40
2015,08,28,07,58,0.20
2015,08,28,07,59,0.20
2015,08,28,08,00,0.10
2015,08,28,08,01,0.00
2015,08,28,08,02,0.60
2015,08,28,08,03,1.40
2015,08,28,08,04,0.50
2015,08,28,08,05,0.60
2015,08,28,08,06,1.90
2015,08,28,08,07,0.90
2015,08,28,08,08,0.20
2015,08,28,08,09,0.00
2015,08,28,08,10,0.70
2015,08,28,08,11,0.20
2015,08,28,08,12,0.70
2015,08,28,08,13,0.80
2015,08,28,08,14,1.80
2015,08,28,08,15,1.60
2015,08,28,08,16,1.40
2015,08,28,08,17,2.70
2015,08,28,08,18,1.70
2015,08,28,08,19,1.30
2015,08,28,08,20,0.80
2015,08,28,08,21,0.40
2015,08,28,08,22,0.20
2015,08,28,08,23,0.40
2015,08,28,08,24,1.50
2015,08,28,08,25,2.70
2015,08,28,08,26,2.60
2015,08,28,08,27,1.90
2015,08,28,08,28,1.20
2015,08,28,08,29,0.60
2015,08,28,08,30,0.50
2015,08,28,08,31,1.80
2015,08,28,08,32,2.10
2015,08,28,08,33,1.00
2015,08,28,08,34,1.10
2015,08,28,08,35,3.30
2015,08,28,08,36,2.50
2015,08,28,08,37,0.90
2015,08,28,08,38,0.70
2015,08,28,08,39,2.60
2015,08,28,08,40,1.40
2015,08,28,08,41,3.00
2015,08,28,08,42,5.60
2015,08,28,08,43,5.10
2015,08,28,08,44,5.80
2015,08,28,08,45,3.20
2015,08,28,08,46,1.50
2015,08,28,08,47,1.50
2015,08,28,08,48,1.80
2015,08,28,08,49,2.90
2015,08,28,08,50,2.70
2015,08,28,08,51,1.90
2015,08,28,08,52,0.50
2015,08,28,08,53,2.10
2015,08,28,08,54,2.80
2015,08,28,08,55,2.00
2015,08,28,08,56,0.60
2015,08,28,08,57,0.70
2015,08,28,08,58,2.30
2015,08,28,08,59,1.90
2015,08,28,09,00,3.20
2015,08,28,09,01,3.70
2015,08,28,09,02,1.90
2015,08,28,09,03,0.50
2015,08,28,09,04,0.80
2015,08,28,09,05,0.20
2015,08,28,09,06,1.30
2015,08,28,09,07,2.30
2015,08,28,09,08,2.40
2015,08,28,09,09,2.60
2015,08,28,09,10,2.90
2015,08,28,09,11,1.80
2015,08,28,09,12,1.50
2015,08,28,09,13,1.30
2015,08,28,09,14,0.60
2015,08,28,09,15,0.50
2015,08,28,09,16,0.50
2015,08,28,09,17,1.60
2015,08,28,09,18,1.40
2015,08,28,09,19,0.10
2015,08,28,09,20,0.60
2015,08,28,09,21,2.10
2015,08,28,09,22,0.30
2015,08,28,09,23,0.90
2015,08,28,09,24,1.40
2015,08,28,09,25,1.90
2015,08,28,09,26,1.20
2015,08,28,09,27,1.30
2015,08,28,09,28,2.30
2015,08,28,09,29,2.40
2015,08,28,09,30,1.50
2015,08,28,09,31,2.20
2015,08,28,09,32,2.40
2015,08,28,09,33,2.20
2015,08,28,09,34,1.80
2015,08,28,09,35,1.30
2015,08,28,09,36,0.70
2015,08,28,09,37,1.10
2015,08,28,09,38,1.50
2015,08,28,09,39,1.10
2015,08,28,09,40,1.20
2015,08,28,09,41,0.30
2015,08,28,09,42,0.20
2015,08,28,09,43,2.10
2015,08,28,09,44,1.50
2015,08,28,09,45,2.30
2015,08,28,09,46,1.70
2015,08,28,09,47,1.50
2015,08,28,09,48,0.60
2015,08,28,09,49,1.20
2015,08,28,09,50,1.50
2015,08,28,09,51,1.60
2015,08,28,09,52,0.80
2015,08,28,09,53,1.40
2015,08,28,09,54,0.50
2015,08,28,09,55,0.60
2015,08,28,09,56,0.70
2015,08,28,09,57,2.60
2015,08,28,09,58,1.00
2015,08,28,09,59,0.20
2015,08,28,10,00,1.10
2015,08,28,10,01,1.50
2015,08,28,10,02,1.00
2015,08,28,10,03,0.80
2015,08,28,10,04,0.50
2015,08,28,10,05,0.10
2015,08,28,10,06,0.50
2015,08,28,10,07,1.40
2015,08,28,10,08,0.20
2015,08,28,10,09,0.20
2015,08,28,10,10,0.40
2015,08,28,10,11,1.20
2015,08,28,10,12,1.30
2015,08,28,10,13,0.60
2015,08,28,10,14,2.40
2015,08,28,10,15,1.80
2015,08,28,10,16,0.80
2015,08,28,10,17,1.60
2015,08,28,10,18,1.40
2015,08,28,10,19,1.50
2015,08,28,10,20,2.20
2015,08,28,10,21,0.70
2015,08,28,10,22,1.30
2015,08,28,10,23,1.40
2015,08,28,10,24,0.70
2015,08,28,10,25,1.90
2015,08,28,10,26,1.90
2015,08,28,10,27,0.60
2015,08,28,10,28,0.60
2015,08,28,10,29,0.20
2015,08,28,10,30,0.50
2015,08,28,10,31,2.40
2015,08,28,10,32,1.60
2015,08,28,10,33,0.70
2015,08,28,10,34,0.40
2015,08,28,10,35,2.10
2015,08,28,10,36,3.10
2015,08,28,10,37,3.60
2015,08,28,10,38,3.70
2015,08,28,10,39,2.30
2015,08,28,10,40,2.90
2015,08,28,10,41,1.10
2015,08,28,10,42,2.30
2015,08,28,10,43,2.70
2015,08,28,10,44,1.80
2015,08,28,10,45,2.70
2015,08,28,10,46,4.80
2015,08,28,10,47,6.30
2015,08,28,10,48,6.10
2015,08,28,10,49,5.10
2015,08,28,10,50,1.70
2015,08,28,10,51,2.70
2015,08,28,10,52,3.50
2015,08,28,10,53,3.10
2015,08,28,10,54,3.80
2015,08,28,10,55,2.90
2015,08,28,10,56,6.00
2015,08,28,10,57,6.30
2015,08,28,10,58,3.10
2015,08,28,10,59,1.70
2015,08,28,11,00,0.90
2015,08,28,11,01,2.20
2015,08,28,11,02,2.10
2015,08,28,11,03,3.40
2015,08,28,11,04,1.50
2015,08,28,11,05,2.00
2015,08,28,11,06,1.10
2015,08,28,11,07,1.10
2015,08,28,11,08,4.00
2015,08,28,11,09,6.00
2015,08,28,11,10,5.40
2015,08,28,11,11,4.10
2015,08,28,11,12,1.80
2015,08,28,11,13,1.20
2015,08,28,11,14,3.50
2015,08,28,11,15,3.40
2015,08,28,11,16,4.10
2015,08,28,11,17,2.10
2015,08,28,11,18,1.10
2015,08,28,11,19,1.10
2015,08,28,11,20,0.90
2015,08,28,11,21,1.00
2015,08,28,11,22,1.10
2015,08,28,11,23,0.80
2015,08,28,11,24,1.00
2015,08,28,11,25,2.20
2015,08,28,11,26,1.90
2015,08,28,11,27,2.50
2015,08,28,11,28,1.90
2015,08,28,11,29,3.50
2015,08,28,11,30,4.60
2015,08,28,11,31,4.20
2015,08,28,11,32,2.80
2015,08,28,11,33,3.70
2015,08,28,11,34,5.10
2015,08,28,11,35,3.10
2015,08,28,11,36,1.80
2015,08,28,11,37,3.30
2015,08,28,11,38,1.00
2015,08,28,11,39,0.40
2015,08,28,11,40,2.50
2015,08,28,11,41,3.80
2015,08,28,11,42,3.60
2015,08,28,11,43,2.20
2015,08,28,11,44,5.60
2015,08,28,11,45,6.40
2015,08,28,11,46,6.80
2015,08,28,11,47,6.40
2015,08,28,11,48,9.70
2015,08,28,11,49,11.60
2015,08,28,11,50,6.50
2015,08,28,11,51,10.00
2015,08,28,11,52,7.80
2015,08,28,11,53,8.40
2015,08,28,11,54,6.50
2015,08,28,11,55,9.40
2015,08,28,11,56,7.40
2015,08,28,11,57,7.30
2015,08,28,11,58,8.60
2015,08,28,11,59,5.60
2015,08,28,12,00,5.10
2015,08,28,12,01,7.40
2015,08,28,12,02,8.60
2015,08,28,12,03,7.40
2015,08,28,12,04,8.30
2015,08,28,12,05,6.70
2015,08,28,12,06,7.80
2015,08,28,12,07,6.20
2015,08,28,12,08,8.10
2015,08,28,12,09,7.30
2015,08,28,12,10,6.90
2015,08,28,12,11,8.70
2015,08,28,12,12,5.90
2015,08,28,12,13,5.90
2015,08,28,12,14,9.60
2015,08,28,12,15,6.30
2015,08,28,12,16,10.50
2015,08,28,12,17,9.10
2015,08,28,12,18,8.30
2015,08,28,12,19,8.50
2015,08,28,12,20,8.40
2015,08,28,12,21,8.40
2015,08,28,12,22,10.00
2015,08,28,12,23,8.00
2015,08,28,12,24,7.20
2015,08,28,12,25,6.00
2015,08,28,12,26,11.30
2015,08,28,12,27,9.70
2015,08,28,12,28,8.30
2015,08,28,12,29,7.30
2015,08,28,12,30,8.40
2015,08,28,12,31,7.20
2015,08,28,12,32,9.30
2015,08,28,12,33,6.30
2015,08,28,12,34,9.30
2015,08,28,12,35,7.40
2015,08,28,12,36,9.70
2015,08,28,12,37,9.90
2015,08,28,12,38,7.00
2015,08,28,12,39,6.40
2015,08,28,12,40,8.30
2015,08,28,12,41,9.10
2015,08,28,12,42,10.00
2015,08,28,12,43,9.00
2015,08,28,12,44,6.70
2015,08,28,12,45,9.60
2015,08,28,12,46,10.90
2015,08,28,12,47,10.10
2015,08,28,12,48,13.20
2015,08,28,12,49,9.00
2015,08,28,12,50,8.50
2015,08,28,12,51,11.20
2015,08,28,12,52,9.90
2015,08,28,12,53,6.60
2015,08,28,12,54,8.00
2015,08,28,12,55,7.30
2015,08,28,12,56,8.70
2015,08,28,12,57,6.00
2015,08,28,12,58,8.70
2015,08,28,12,59,9.10
2015,08,28,13,00,12.20
2015,08,28,13,01,9.00
2015,08,28,13,02,8.90
2015,08,28,13,03,9.40
2015,08,28,13,04,9.10
2015,08,28,13,05,9.80
2015,08,28,13,06,7.60
2015,08,28,13,07,10.30
2015,08,28,13,08,15.00
2015,08,28,13,09,13.40
2015,08,28,13,10,10.80
2015,08,28,13,11,12.10
2015,08,28,13,12,9.80
2015,08,28,13,13,13.70
2015,08,28,13,14,9.60
2015,08,28,13,15,14.10
2015,08,28,13,16,12.90
2015,08,28,13,17,6.90
2015,08,28,13,18,8.00
2015,08,28,13,19,9.70
2015,08,28,13,20,6.60
2015,08,28,13,21,8.10
2015,08,28,13,22,12.80
2015,08,28,13,23,9.30
2015,08,28,13,24,6.60
2015,08,28,13,25,9.50
2015,08,28,13,26,9.30
2015,08,28,13,27,9.90
2015,08,28,13,28,9.00
2015,08,28,13,29,7.40
2015,08,28,13,30,6.80
2015,08,28,13,31,8.30
2015,08,28,13,32,10.10
2015,08,28,13,33,9.00
2015,08,28,13,34,9.40
2015,08,28,13,35,9.10
2015,08,28,13,36,9.20
2015,08,28,13,37,11.30
2015,08,28,13,38,4.80
2015,08,28,13,39,6.90
2015,08,28,13,40,8.90
2015,08,28,13,41,5.00
2015,08,28,13,42,8.30
2015,08,28,13,43,10.20
2015,08,28,13,44,6.60
2015,08,28,13,45,13.00
2015,08,28,13,46,8.60
2015,08,28,13,47,9.30
2015,08,28,13,48,6.50
2015,08,28,13,49,9.00
2015,08,28,13,50,6.00
2015,08,28,13,51,7.10
2015,08,28,13,52,7.10
2015,08,28,13,53,9.30
2015,08,28,13,54,10.40
2015,08,28,13,55,7.20
2015,08,28,13,56,4.50
2015,08,28,13,57,10.20
2015,08,28,13,58,7.90
2015,08,28,13,59,7.00
2015,08,28,14,00,5.70
2015,08,28,14,01,5.10
2015,08,28,14,02,5.00
2015,08,28,14,03,4.40
2015,08,28,14,04,9.40
2015,08,28,14,05,11.60
2015,08,28,14,06,8.60
2015,08,28,14,07,12.50
2015,08,28,14,08,8.30
2015,08,28,14,09,8.60
2015,08,28,14,10,5.60
2015,08,28,14,11,6.50
2015,08,28,14,12,7.20
2015,08,28,14,13,5.30
2015,08,28,14,14,9.40
2015,08,28,14,15,8.60
2015,08,28,14,16,9.10
2015,08,28,14,17,5.50
2015,08,28,14,18,10.50
2015,08,28,14,19,8.80
2015,08,28,14,20,8.80
2015,08,28,14,21,9.20
2015,08,28,14,22,10.40
2015,08,28,14,23,8.90
2015,08,28,14,24,7.80
2015,08,28,14,25,8.60
2015,08,28,14,26,10.90
2015,08,28,14,27,7.70
2015,08,28,14,28,9.90
2015,08,28,14,29,9.20
2015,08,28,14,30,8.60
2015,08,28,14,31,8.20
2015,08,28,14,32,5.60
2015,08,28,14,33,10.30
2015,08,28,14,34,6.50
2015,08,28,14,35,8.60
2015,08,28,14,36,5.10
2015,08,28,14,37,9.80
2015,08,28,14,38,5.60
2015,08,28,14,39,7.40
2015,08,28,14,40,5.10
2015,08,28,14,41,7.10
2015,08,28,14,42,11.10
2015,08,28,14,43,9.10
2015,08,28,14,44,9.50
2015,08,28,14,45,11.50
2015,08,28,14,46,8.90
2015,08,28,14,47,8.50
2015,08,28,14,48,7.20
2015,08,28,14,49,7.50
2015,08,28,14,50,8.20
2015,08,28,14,51,4.70
2015,08,28,14,52,5.40
2015,08,28,14,53,8.60
2015,08,28,14,54,8.50
2015,08,28,14,55,9.10
2015,08,28,14,56,10.10
2015,08,28,14,57,7.70
2015,08,28,14,58,5.60
2015,08,28,14,59,5.10
2015,08,28,15,00,4.80
2015,08,28,15,01,11.80
2015,08,28,15,02,7.80
2015,08,28,15,03,6.10
2015,08,28,15,04,8.50
2015,08,28,15,05,3.70
2015,08,28,15,06,5.80
2015,08,28,15,07,6.70
2015,08,28,15,08,3.20
2015,08,28,15,09,3.40
2015,08,28,15,10,4.10
2015,08,28,15,11,1.40
2015,08,28,15,12,4.80
2015,08,28,15,13,6.80
2015,08,28,15,14,7.50
2015,08,28,15,15,5.90
2015,08,28,15,16,3.10
2015,08,28,15,17,2.40
2015,08,28,15,18,2.00
2015,08,28,15,19,4.80
2015,08,28,15,20,7.00
2015,08,28,15,21,9.40
2015,08,28,15,22,9.30
2015,08,28,15,23,7.90
2015,08,28,15,24,6.20
2015,08,28,15,25,2.70
2015,08,28,15,26,3.60
2015,08,28,15,27,7.30
2015,08,28,15,28,6.10
2015,08,28,15,29,3.00
2015,08,28,15,30,3.00
2015,08,28,15,31,4.30
2015,08,28,15,32,7.10
2015,08,28,15,33,7.20
2015,08,28,15,34,5.10
2015,08,28,15,35,8.40
2015,08,28,15,36,6.50
2015,08,28,15,37,5.50
2015,08,28,15,38,9.70
2015,08,28,15,39,5.60
2015,08,28,15,40,6.60
2015,08,28,15,41,6.70
2015,08,28,15,42,7.80
2015,08,28,15,43,9.90
2015,08,28,15,44,8.70
2015,08,28,15,45,7.40
2015,08,28,15,46,4.80
2015,08,28,15,47,7.70
2015,08,28,15,48,6.60
2015,08,28,15,49,7.10
2015,08,28,15,50,7.50
2015,08,28,15,51,9.20
2015,08,28,15,52,6.70
2015,08,28,15,53,6.40
2015,08,28,15,54,5.40
2015,08,28,15,55,9.30
2015,08,28,15,56,9.80
2015,08,28,15,57,8.00
2015,08,28,15,58,9.30
2015,08,28,15,59,7.40
2015,08,28,16,00,7.80
2015,08,28,16,01,7.20
2015,08,28,16,02,8.20
2015,08,28,16,03,8.70
2015,08,28,16,04,7.00
2015,08,28,16,05,9.70
2015,08,28,16,06,10.20
2015,08,28,16,07,9.70
2015,08,28,16,08,8.10
2015,08,28,16,09,7.50
2015,08,28,16,10,7.80
2015,08,28,16,11,10.20
2015,08,28,16,12,7.70
2015,08,28,16,13,3.10
2015,08,28,16,14,5.50
2015,08,28,16,15,7.50
2015,08,28,16,16,7.60
2015,08,28,16,17,6.20
2015,08,28,16,18,4.30
2015,08,28,16,19,3.90
2015,08,28,16,20,4.70
2015,08,28,16,21,4.70
2015,08,28,16,22,9.40
2015,08,28,16,23,8.30
2015,08,28,16,24,8.80
2015,08,28,16,25,6.00
2015,08,28,16,26,9.00
2015,08,28,16,27,7.70
2015,08,28,16,28,9.00
2015,08,28,16,29,7.20
2015,08,28,16,30,6.00
2015,08,28,16,31,5.60
2015,08,28,16,32,2.90
2015,08,28,16,33,7.10
2015,08,28,16,34,8.70
2015,08,28,16,35,8.50
2015,08,28,16,36,8.50
2015,08,28,16,37,4.60
2015,08,28,16,38,8.30
2015,08,28,16,39,5.00
2015,08,28,16,40,4.80
2015,08,28,16,41,10.00
2015,08,28,16,42,9.00
2015,08,28,16,43,7.00
2015,08,28,16,44,5.00
2015,08,28,16,45,3.50
2015,08,28,16,46,3.90
2015,08,28,16,47,6.50
2015,08,28,16,48,8.50
2015,08,28,16,49,6.10
2015,08,28,16,50,7.00
2015,08,28,16,51,7.60
2015,08,28,16,52,3.70
2015,08,28,16,53,9.00
2015,08,28,16,54,9.80
2015,08,28,16,55,5.90
2015,08,28,16,56,10.10
2015,08,28,16,57,9.60
2015,08,28,16,58,7.60
2015,08,28,16,59,7.90
2015,08,28,17,00,6.70
2015,08,28,17,01,6.30
2015,08,28,17,02,9.90
2015,08,28,17,03,8.00
2015,08,28,17,04,6.00
2015,08,28,17,05,5.20
2015,08,28,17,06,8.00
2015,08,28,17,07,6.10
2015,08,28,17,08,5.20
2015,08,28,17,09,7.20
2015,08,28,17,10,7.10
2015,08,28,17,11,6.70
2015,08,28,17,12,6.20
2015,08,28,17,13,6.40
2015,08,28,17,14,11.20
2015,08,28,17,15,8.40
2015,08,28,17,16,7.40
2015,08,28,17,17,8.80
2015,08,28,17,18,9.70
2015,08,28,17,19,8.60
2015,08,28,17,20,7.40
2015,08,28,17,21,10.50
2015,08,28,17,22,10.70
2015,08,28,17,23,12.00
2015,08,28,17,24,7.60
2015,08,28,17,25,7.20
2015,08,28,17,26,8.80
2015,08,28,17,27,8.20
2015,08,28,17,28,8.70
2015,08,28,17,29,8.40
2015,08,28,17,30,7.40
2015,08,28,17,31,9.70
2015,08,28,17,32,7.50
2015,08,28,17,33,8.10
2015,08,28,17,34,8.20
2015,08,28,17,35,9.20
2015,08,28,17,36,7.10
2015,08,28,17,37,8.50
2015,08,28,17,38,5.90
2015,08,28,17,39,5.80
2015,08,28,17,40,7.80
2015,08,28,17,41,8.50
2015,08,28,17,42,7.00
2015,08,28,17,43,6.80
2015,08,28,17,44,7.90
2015,08,28,17,45,7.80
2015,08,28,17,46,6.40
2015,08,28,17,47,6.80
2015,08,28,17,48,7.00
2015,08,28,17,49,7.80
2015,08,28,17,50,6.80
2015,08,28,17,51,7.00
2015,08,28,17,52,6.40
2015,08,28,17,53,5.80
2015,08,28,17,54,4.90
2015,08,28,17,55,4.10
2015,08,28,17,56,6.60
2015,08,28,17,57,7.20
2015,08,28,17,58,6.60
2015,08,28,17,59,4.80
2015,08,28,18,00,3.70
2015,08,28,18,01,6.00
2015,08,28,18,02,5.70
2015,08,28,18,03,3.30
2015,08,28,18,04,5.10